{"data":{"norad_id":51465,"intl_designator":"2022-010K","name":"STARLINK-3401","alt_names":[],"object_type":"PAYLOAD","status":"ACTIVE","operator":null,"country":"US","launch_date":"2022-02-03","launch_site_code":"AFETR","launch_vehicle":null,"mission":null,"orbit_class":"UNKNOWN","rcs_meters":null,"size_class":null,"mass_kg":null,"dimensions":null,"purposes":["comms"],"wikipedia_slug":null,"has_3d_model":false,"image_url":null,"decayed_at":null,"tle_current":{"epoch":"2026-05-24T19:10:13.470528Z","epoch_age_seconds":95640,"freshness":"FRESH","line1":"1 51465U 22010K   26144.79876702  .00000307  00000+0  37355-4 0  9995","line2":"2 51465  53.2142 297.4544 0001208  88.2921 271.8210 15.08840119238816","mean_motion":15.08840119,"eccentricity":0.0001208,"inclination_deg":53.2142,"raan_deg":297.4544,"arg_perigee_deg":88.2921,"mean_anomaly_deg":271.821,"bstar":3.7355e-5,"rev_number":23881,"period_min":95.437547150746,"perigee_km":538.90734532169,"apogee_km":540.57870513578,"semimajor_km":6917.8800252287,"source":"CELESTRAK","updated_at":"2026-05-25T13:38:16.918502Z"}}}